Location: Newark
(39.0083°N, 20.7336°E)
Time: 04:02:04
(UTC+00:00)

ISS - Pass Details

Date: 28 September 2021
Orbit: 417 x 423 km, 51.6° (Epoch: 15 October)

Event Time Altitude Azimuth Distance (km) Brightness Sun altitude
Rises 17:19:03 0° 313° (NW) 2,365 1.0 -11.4°
Reaches altitude 10° 17:22:53 10° 357° (N) 1,503 -0.8 -12.2°
Maximum altitude 17:23:29 10° 7° (N) 1,482 -1.0 -12.3°
Drops below altitude 10° 17:24:05 10° 18° (NNE) 1,504 -1.1 -12.4°
Enters shadow 17:25:33 - 40° (NE) 1,716 -1.0 -12.7°
